Tracking 20241 objects as of 26-Jan-2020
HD Live streaming from Space Station
objects crossing your sky now

COSMOS 2251 DEB

Track COSMOS 2251 DEB now!
10-day predictions


NORAD ID: 36002
Int'l Code: 1993-036AWU
Perigee: 610.9 km
Apogee: 717.5 km
Inclination: 74.0 °
Period: 97.9 minutes
Semi major axis: 7035 km
RCS: 0.0085 m2 (small)
Launch date: June 16, 1993
Source: Commonwealth of Independent States (former USSR) (CIS)
Launch site: PLESETSK MISSILE AND SPACE COMPLEX (PKMTR)

Note: This is SATELLITE DEBRIS
aabbcc
Your satellite tracking list
Your tracking list is empty




NASA's NSSDC Master Catalog

Two Line Element Set (TLE):
1 36002U 93036AWU 20026.33606835 +.00000351 +00000-0 +59972-4 0  9991
2 36002 074.0124 253.5705 0075766 210.2383 149.4407 14.71265086355112
Source of the keplerian elements: AFSPC